Location: Newark
(34.9500°N, 139.9667°E)
Time: 22:04:55
(UTC+00:00)

Vanguard 1 Rocket - Pass Details

Date: 09 December 2019
Orbit: 650 x 4226 km, 34.3° (Epoch: 16 January)

Event Time Altitude Azimuth Distance (km) Brightness Sun altitude
Rises 18:20:53 0° 276° (W) 3,767 - -39.2°
Reaches altitude 10° 18:24:49 10° 256° (WSW) 2,411 - -38.4°
Maximum altitude 18:28:01 16° 218° (SW) 1,788 - -37.8°
Drops below altitude 10° 18:30:50 10° 178° (S) 2,056 - -37.2°
Exits shadow 18:33:06 - 159° (SSE) 2,710 10.1 -36.7°
Sets 18:33:48 0° 155° (SSE) 2,951 10.4 -36.6°
